Location: Angwan Shehu
(11.2514°N, 7.4613°E)
Time: 06:04:32
(UTC+00:00)

SR - Pass Details

Date: 20 April 2021
Orbit: 573 x 882 km, 66.7° (Epoch: 12 May)

Event Time Altitude Azimuth Distance (km) Brightness Sun altitude
Rises 17:02:36 0° 335° (NNW) 3,312 ? 8.6°
Reaches altitude 10° 17:05:08 10° 333° (NNW) 2,336 ? 8.0°
Maximum altitude 17:10:26 67° 251° (WSW) 794 ? 6.7°
Drops below altitude 10° 17:15:15 10° 169° (SSE) 2,131 ? 5.6°
Sets 17:17:29 0° 166° (SSE) 2,999 ? 5.1°
